Istanbul, Turkey

1:11 PM +03 on January 19, 2018 (GMT +0300)
Ataturk

Weather History for LTBA - January, 2011

Change the Weather History Date:

Tuesday, January 18, 2011

  Actual Average Record
Temperature  
Mean Temperature 44 °F -  
Max Temperature 51 °F 47 °F 59 °F (2013)
Min Temperature 36 °F 37 °F 26 °F (2012)
Degree Days  
Heating Degree Days 22    
Moisture  
Dew Point 36 °F    
Average Humidity 74    
Maximum Humidity 93    
Minimum Humidity 52    
Precipitation  
Precipitation 0.00 in - - ()
Sea Level Pressure  
Sea Level Pressure 30.28 in    
Wind  
Wind Speed 6 mph ()    
Max Wind Speed 9 mph    
Max Gust Speed -    
Visibility 6.0 miles    
Events      
Averages and records for this station are not official NWS values.
T = Trace of Precipitation, MM = Missing Value Source: Averaged Metar Reports

Daily Weather History Graph

Daily Weather History Graph

Search for Another Location

Airport or City:

Trip Planner

Search our weather history database for the weather conditions in past years. The results will help you decide how hot, cold, wet, or windy it might be!

Date:

Astronomy

Jan. 18, 2011 Rise Set
Actual Time 7:26 AM EET 5:04 PM EET
Civil Twilight 6:56 AM EET 5:34 PM EET
Nautical Twilight 6:22 AM EET 6:08 PM EET
Astronomical Twilight 5:49 AM EET 6:40 PM EET
Moon 3:37 PM EET (1/18) 6:04 AM EET (1/18)
Length of Visible Light 10h 38m
Length of Day
9h 37m
Waxing Gibbous, 97% of the Moon is Illuminated
Jan 18
Waxing Gibbous
Jan 19
Full
Jan 26
Last Quarter
Feb 3
New
Feb 11
First Quarter

Hourly Weather History & Observations

Time (EET) Temp. Windchill Dew Point Humidity Pressure Visibility Wind Dir Wind Speed Gust Speed Precip Events Conditions
12:20 AM 44.6 °F 41.4 °F 37.4 °F 76% 30.36 in - Variable 5.8 mph - N/A   Clear
12:50 AM 42.8 °F 39.3 °F 35.6 °F 76% 30.33 in - NNE 5.8 mph - N/A   Clear
1:20 AM 41.0 °F 36.4 °F 35.6 °F 81% 30.33 in - NNE 6.9 mph - N/A   Clear
1:50 AM 41.0 °F 36.4 °F 35.6 °F 81% 30.33 in - North 6.9 mph - N/A   Clear
2:00 AM 41 °F - 36 °F 77% 30.35 in 6 mi North 6.9 mph - -  
2:20 AM 41.0 °F 36.4 °F 35.6 °F 81% 30.33 in - NNE 6.9 mph - N/A   Clear
2:50 AM 41.0 °F 35.8 °F 35.6 °F 81% 30.33 in - North 8.1 mph - N/A   Clear
3:20 AM 39.2 °F 34.2 °F 33.8 °F 81% 30.33 in - North 6.9 mph - N/A   Clear
3:50 AM 37.4 °F 31.4 °F 33.8 °F 87% 30.33 in - North 8.1 mph - N/A   Clear
4:20 AM 37.4 °F 31.4 °F 33.8 °F 87% 30.33 in - North 8.1 mph - N/A   Clear
4:50 AM 37.4 °F 31.4 °F 35.6 °F 93% 30.33 in - North 8.1 mph - N/A   Clear
5:20 AM 37.4 °F 32.1 °F 35.6 °F 93% 30.33 in - North 6.9 mph - N/A   Clear
5:50 AM 37.4 °F 32.1 °F 33.8 °F 87% 30.33 in - North 6.9 mph - N/A   Clear
6:20 AM 37.4 °F 32.8 °F 35.6 °F 93% 30.30 in - North 5.8 mph - N/A   Clear
6:50 AM 37.4 °F 31.4 °F 35.6 °F 93% 30.30 in - NNW 8.1 mph - N/A   Clear
7:20 AM 37.4 °F 31.4 °F 33.8 °F 87% 30.33 in 3.7 mi North 8.1 mph - N/A   Unknown
7:50 AM 39.2 °F 35.0 °F 37.4 °F 93% 30.30 in - Variable 5.8 mph - N/A   Clear
8:00 AM 40 °F - 37 °F 83% 30.33 in 6 mi NNW 5.8 mph - -  
8:20 AM 39.2 °F 33.0 °F 35.6 °F 87% 30.33 in 6.2 mi NNW 9.2 mph - N/A   Partly Cloudy
9:20 AM 44.6 °F 40.2 °F 37.4 °F 76% 30.33 in 6.2 mi North 8.1 mph - N/A   Partly Cloudy
9:50 AM 46.4 °F 42.9 °F 35.6 °F 66% 30.30 in 6.2 mi NNE 6.9 mph - N/A   Partly Cloudy
10:20 AM 46.4 °F 43.5 °F 35.6 °F 66% 30.30 in - ENE 5.8 mph - N/A   Clear
10:50 AM 48.2 °F - 35.6 °F 62% 30.30 in - East 4.6 mph - N/A   Clear
11:20 AM 48.2 °F - 35.6 °F 62% 30.30 in - Variable 6.9 mph - N/A   Clear
11:50 AM 48.2 °F - 35.6 °F 62% 30.27 in - ESE 8.1 mph - N/A   Clear
12:20 PM 50.0 °F - 35.6 °F 58% 30.27 in - ESE 8.1 mph - N/A   Clear
12:50 PM 50.0 °F - 35.6 °F 58% 30.27 in 6.2 mi East 6.9 mph - N/A   Partly Cloudy
1:20 PM 48.2 °F - 35.6 °F 62% 30.27 in 6.2 mi East 5.8 mph - N/A   Partly Cloudy
1:50 PM 48.2 °F - 35.6 °F 62% 30.27 in 6.2 mi East 5.8 mph - N/A   Partly Cloudy
2:00 PM 49 °F - 37 °F 52% 30.27 in 6 mi East 5.8 mph - -   Scattered Clouds
2:20 PM 48.2 °F - 37.4 °F 66% 30.24 in 6.2 mi ESE 5.8 mph - N/A   Partly Cloudy
2:50 PM 48.2 °F - 35.6 °F 62% 30.24 in 6.2 mi SE 5.8 mph - N/A   Scattered Clouds
3:20 PM 50.0 °F - 35.6 °F 58% 30.24 in 6.2 mi Variable 5.8 mph - N/A   Scattered Clouds
3:50 PM 50.0 °F - 35.6 °F 58% 30.24 in 6.2 mi ENE 4.6 mph - N/A   Scattered Clouds
4:20 PM 48.2 °F - 35.6 °F 62% 30.24 in 6.2 mi East 5.8 mph - N/A   Scattered Clouds
4:50 PM 48.2 °F - 35.6 °F 62% 30.24 in 6.2 mi East 6.9 mph - N/A   Scattered Clouds
5:20 PM 46.4 °F 43.5 °F 35.6 °F 66% 30.24 in 6.2 mi East 5.8 mph - N/A   Scattered Clouds
5:50 PM 46.4 °F 42.9 °F 35.6 °F 66% 30.24 in 6.2 mi NE 6.9 mph - N/A   Scattered Clouds
6:20 PM 44.6 °F 39.7 °F 35.6 °F 71% 30.24 in 6.2 mi NNE 9.2 mph - N/A   Scattered Clouds
6:50 PM 44.6 °F 40.7 °F 37.4 °F 76% 30.24 in - NNE 6.9 mph - N/A   Clear
7:20 PM 46.4 °F 43.5 °F 35.6 °F 66% 30.24 in - ENE 5.8 mph - N/A   Clear
7:50 PM 44.6 °F 41.4 °F 35.6 °F 71% 30.24 in - NE 5.8 mph - N/A   Clear
8:00 PM 44 °F - 35 °F 61% 30.26 in 6 mi NE 5.8 mph - -  
8:20 PM 42.8 °F 39.3 °F 33.8 °F 70% 30.24 in - North 5.8 mph - N/A   Clear
8:50 PM 42.8 °F 40.1 °F 37.4 °F 81% 30.24 in - NNE 4.6 mph - N/A   Clear
9:20 PM 44.6 °F 40.7 °F 35.6 °F 71% 30.24 in - NE 6.9 mph - N/A   Clear
9:50 PM 42.8 °F 39.3 °F 35.6 °F 76% 30.24 in - NNE 5.8 mph - N/A   Clear
10:20 PM 42.8 °F 39.3 °F 35.6 °F 76% 30.24 in - NE 5.8 mph - N/A   Clear
10:50 PM 42.8 °F 39.3 °F 35.6 °F 76% 30.24 in - NNE 5.8 mph - N/A   Clear
11:20 PM 41.0 °F 38.0 °F 35.6 °F 81% 30.24 in - North 4.6 mph - N/A   Clear
11:50 PM 39.2 °F 35.0 °F 33.8 °F 81% 30.24 in - North 5.8 mph - N/A   Clear